Location: Abyssinia Baptist Church
(32.7840°N, 96.7578°W)
Time: 02:18:00
(UTC+00:00)

OAO 2 Rocket - Pass Details

Date: 08 December 2021
Orbit: 675 x 746 km, 35.0° (Epoch: 28 January)

Event Time Altitude Azimuth Distance (km) Brightness Sun altitude
Exits shadow 12:04:52 16° 250° (WSW) 1,865 5.0 -14.9°
Maximum altitude 12:09:08 81° 164° (SSE) 730 3.4 -14.1°
Drops below altitude 10° 12:14:16 10° 77° (ENE) 2,177 6.8 -13.0°
Sets 12:16:39 0° 76° (ENE) 3,085 7.7 -12.6°
